Regional Weather Roundup
Issued by NWS

Home | Current Version | Previous Version | Graphics & Text | Print | Product List | Glossary On
Versions: 1 2 3 4 5 6 7 8 9 10 11 12 13 14 15 16 17 18 19 20 21 22 23 24 25 26 27 28 29 30 31 32 33 34 35 36 37 38 39 40 41 42 43 44 45 46 47 48 49 50
000
ASUS43 KMKX 141810
RWRWI

WISCONSIN REGIONAL WEATHER ROUNDUP
NATIONAL WEATHER SERVICE MILWAUKEE/SULLIVAN WI
1200 PM CST SUN FEB 14 2016

NOTE: "FAIR" INDICATES FEW OR NO CLOUDS BELOW 12,000 FEET WITH NO
SIGNIFICANT WEATHER AND/OR OBSTRUCTIONS TO VISIBILITY.

WIZ001-002-006>008-014>016-023>028-141900-
NORTHWEST WISCONSIN

CITY           SKY/WX    TMP DP  RH WIND       PRES   REMARKS
SUPERIOR ARPT  LGT SNOW  14   6  71 S12G18    30.06F WCI   0
6HR MIN TEMP:  -4; 6HR MAX TEMP:  15;

ASHLAND        CLOUDY    13  -6  42 CALM      30.08F
6HR MIN TEMP: -20; 6HR MAX TEMP:  13;

HAYWARD        CLOUDY    12   0  58 S14G21    30.04F WCI  -3
6HR MIN TEMP:   0; 6HR MAX TEMP:  12;

SIREN          FLURRIES  14   4  64 SE9G16    30.04F WCI   1
6HR MIN TEMP:   6; 6HR MAX TEMP:  14;

CUMBERLAND     FLURRIES  12   3  67 SE14      30.02F WCI  -3
RICE LAKE      FLURRIES  12   4  71 SE10      30.06F WCI  -1
6HR MIN TEMP:   3; 6HR MAX TEMP:  12;

CHETEK         FLURRIES  13   5  71 SE9       30.05F WCI   0
6HR MIN TEMP:   2; 6HR MAX TEMP:  13;

LADYSMITH      FLURRIES  14   1  55 SE12G20   30.09F WCI   0
6HR MIN TEMP:  -6; 6HR MAX TEMP:  14;

EAU CLAIRE     MOSUNNY   14   5  67 SE16      30.07F WCI  -2
6HR MIN TEMP:   2; 6HR MAX TEMP:  14; 6HR PCP: TRACE;

MENOMONIE      CLOUDY    17   6  60 E13       30.07F WCI   4
6HR MIN TEMP:   6; 6HR MAX TEMP:  19;

NEW RICHMOND   LGT SNOW  17   8  68 S13       30.03F WCI   3
6HR MIN TEMP:   6; 6HR MAX TEMP:  17;

OSCEOLA        LGT SNOW  17   9  70 SE14      30.06F WCI   3
6HR MIN TEMP:   8; 6HR MAX TEMP:  17;

$$

WIZ003>005-009-010-017-018-141900-
NORTH CENTRAL WISCONSIN

CITY           SKY/WX    TMP DP  RH WIND       PRES   REMARKS
MANITOWISH WTR CLOUDY    14 -12  30 S15G23    30.05F WCI  -1
6HR MIN TEMP: -25; 6HR MAX TEMP:  14;

ARBOR VITAE    CLOUDY    17 -10  30 S16G22    30.06F WCI   1
6HR MIN TEMP: -16; 6HR MAX TEMP:  17;

WOODRUFF       CLOUDY    17 -10  30 S16G22    30.06F WCI   1
6HR MIN TEMP: -16; 6HR MAX TEMP:  17;

RHINELANDER    CLOUDY    14  -8  37 S13       30.08F WCI   0
6HR MIN TEMP: -20; 6HR MAX TEMP:  14;

EAGLE RIVER    CLOUDY    15 -13  27 S13G21    30.08F WCI   1
LAND O LAKES   CLOUDY    18 -14  23 S16G22    30.08F WCI   3
6HR MIN TEMP: -27; 6HR MAX TEMP:  18;

PHILLIPS       CLOUDY    12  -6  43 SE14      30.06F WCI  -3
6HR MIN TEMP: -22; 6HR MAX TEMP:  12;

TOMAHAWK       CLOUDY    14  -9  35 SE7       30.09F WCI   4
6HR MIN TEMP: -25; 6HR MAX TEMP:  14;

MEDFORD        CLOUDY    13  -3  48 SE12      30.07F WCI  -1
6HR MIN TEMP:  -7; 6HR MAX TEMP:  13;

MERRILL        CLOUDY    18   0  45 S13G22    30.11F WCI   4
$$

WIZ029-030-035-036-043>047-141900-
CENTRAL WISCONSIN

CITY           SKY/WX    TMP DP  RH WIND       PRES   REMARKS
WAUSAU         MOSUNNY   18  -2  41 SE17      30.11F WCI   3
6HR MIN TEMP: -13; 6HR MAX TEMP:  18;

MOSINEE        CLOUDY    16  -2  45 SE10G16   30.12F WCI   3
MARSHFIELD     CLOUDY    15  -3  44 SE13      30.09F WCI   1
6HR MIN TEMP:  -6; 6HR MAX TEMP:  15;

STEVENS POINT  CLOUDY    15  -7  37 SE13      30.14F WCI   1
6HR MIN TEMP: -16; 6HR MAX TEMP:  15;

WAUPACA        MOSUNNY   21   0  39 SE7       30.18F WCI  13
6HR MIN TEMP: -14; 6HR MAX TEMP:  22;

WAUTOMA        CLOUDY    17  -2  43 SE12      30.18F WCI   4
6HR MIN TEMP: -17; 6HR MAX TEMP:  17;

WISC RAPIDS    CLOUDY    16  -2  45 S8        30.15F WCI   5
6HR MIN TEMP:  -6; 6HR MAX TEMP:  16;

CAMP DOUGLAS   LGT SNOW  14  10  85 SE17      30.10F FOG     WCI  -3
                                      6HR PCP:  0.01;

$$

WIZ011>013-019>022-031-037>040-048>050-141900-
NORTHEAST WISCONSIN

CITY           SKY/WX    TMP DP  RH WIND       PRES   REMARKS
ANTIGO         CLOUDY    13   4  68 S13       30.13F WCI  -2
6HR MIN TEMP: -13; 6HR MAX TEMP:  13;

SHAWANO        CLOUDY    21   8  57 S7        30.21F WCI  12
6HR MIN TEMP: -10; 6HR MAX TEMP:  21;

OCONTO         CLOUDY    14   2  59 CALM      30.25F
6HR MIN TEMP: -15; 6HR MAX TEMP:  14;

STURGEON BAY   CLOUDY    16  10  79 CALM      30.25F
6HR MIN TEMP:  -6; 6HR MAX TEMP:  16;

GREEN BAY      FLURRIES  16   8  71 S5        30.22F WCI   9
6HR MIN TEMP: -13; 6HR MAX TEMP:  15; 6HR PCP: TRACE;

MANITOWOC      LGT SNOW  20  15  81 S8        30.25F VSB 1   WCI  10
6HR MIN TEMP:  -5; 6HR MAX TEMP:  21; 6HR PCP: TRACE;

APPLETON       MOSUNNY   18   5  57 SE13      30.18F WCI   4
CLINTONVILLE   CLOUDY    21   7  53 S10       30.19F WCI  10
OSHKOSH        SUNNY     20   9  62 S15G24    30.18F WCI   6
6HR MIN TEMP:  -6; 6HR MAX TEMP:  21;

$$

WIZ032>034-041-042-053>061-141900-
SOUTHWEST WISCONSIN

CITY           SKY/WX    TMP DP  RH WIND       PRES   REMARKS
LA CROSSE      LGT SNOW  15   9  76 SE16      30.09F WCI  -1
6HR MIN TEMP:  11; 6HR MAX TEMP:  15; 6HR PCP:  0.02;

SPARTA         LGT SNOW  15   9  76 SE10      30.11F WCI   2
6HR MIN TEMP:   8; 6HR MAX TEMP:  15;

VIROQUA        CLOUDY    15  10  80 SE16      30.04F WCI   0
6HR MIN TEMP:   8; 6HR MAX TEMP:  15;

BOSCOBEL       SNOW      17  12  80 VRB5G16   30.12F VSB 1/2 WCI  10
6HR MIN TEMP:  10; 6HR MAX TEMP:  17; 6HR PCP:  0.02;

PRAIRIE DU CHI LGT SNOW  17  11  78 E9        30.09F VSB 1   WCI   5
6HR MIN TEMP:  13; 6HR MAX TEMP:  17;

PLATTEVILLE    CLOUDY    16  12  86 SE15G25   30.10F VSB 1   WCI   1
6HR MIN TEMP:  13; 6HR MAX TEMP:  16;

$$

WIZ056-057-062-063-064-067-068-141900-
SOUTH CENTRAL WISCONSIN

CITY           SKY/WX    TMP DP  RH WIND       PRES   REMARKS
REEDSBURG      LGT SNOW  15   8  74 SE8G20    30.13F WCI   4
6HR MIN TEMP:   4; 6HR MAX TEMP:  15;

BARABOO/DELLS  LGT SNOW  15   8  75 SE12      30.13F WCI   2
6HR MIN TEMP:   1; 6HR MAX TEMP:  15;

LONE ROCK      LGT SNOW  15  10  80 SE9       30.15F VSB 1   WCI   3
6HR MIN TEMP:  10; 6HR MAX TEMP:  16; 6HR PCP: TRACE;

MINERAL POINT  SNOW      18  12  79 SE13      30.09F VSB 1/2 WCI   4
MADISON        LGT SNOW  14   8  77 SE13      30.16F WCI   0
6HR MIN TEMP:   9; 6HR MAX TEMP:  15; 6HR PCP: TRACE;

MIDDLETON      CLOUDY    17  10  76 SE12      30.15F WCI   4
6HR MIN TEMP:  11; 6HR MAX TEMP:  17;

WATERTOWN      LGT SNOW  17   7  64 SE13G18   30.19F WCI   4
6HR MIN TEMP:   3; 6HR MAX TEMP:  18;

MONROE         LGT SNOW  14  12  92 SE13G20   30.13F VSB 3/4 WCI   0
JANESVILLE     LGT SNOW  18  10  73 SE13      30.19F WCI   4
$$

WIZ051-052-058>065-066-070>072-141900-
SOUTHEAST WISCONSIN

CITY           SKY/WX    TMP DP  RH WIND       PRES   REMARKS
MILWAUKEE      CLOUDY    19  10  68 SE15      30.23F WCI   5
6HR MIN TEMP:   8; 6HR MAX TEMP:  19; 6HR PCP: TRACE;

WAUKESHA       CLOUDY    16   9  73 SE12G23   30.22F WCI   3
MILWAUKEE/TIMM FLURRIES  19   9  63 SE15G22   30.23F WCI   5
RACINE         CLOUDY    20   9  62 S14G23    30.25F WCI   7
6HR MIN TEMP:  10; 6HR MAX TEMP:  20; 6HR PCP: TRACE;

BURLINGTON     LGT SNOW  15   6  67 SE12      30.21F WCI   2
6HR MIN TEMP:  -1; 6HR MAX TEMP:  16;

KENOSHA        CLOUDY    18   7  62 SE17G23   30.22F WCI   3
6HR MIN TEMP:   6; 6HR MAX TEMP:  19;

FOND DU LAC    CLOUDY    20  10  65 SE20G26   30.18F WCI   4
6HR MIN TEMP:  -6; 6HR MAX TEMP:  20; 6HR PCP: TRACE;

SHEBOYGAN      LGT SNOW  20  13  74 SE14G22   30.22F WCI   7
6HR MIN TEMP:  -4; 6HR MAX TEMP:  20; 6HR PCP: TRACE;

WEST BEND      FLURRIES  19  12  73 SE10G18   30.20F WCI   8
JUNEAU         CLOUDY    18   8  63 SE13      30.19F WCI   5
6HR MIN TEMP:   0; 6HR MAX TEMP:  18;

$$

LSZ147-162-141900-
LAKE SUPERIOR

STATION/POSITION TIME  TEMP    WIND        PRES    WAVE
                       AIR SEA DIR/SP/G            HT/PER
                 (UTC) (F)     (DEG/KT/KT) (MB)    (FT/S)
DEVILS ISLAND    1800   13     160/  5/  8 1020.3F
SAXON HARBOR     1700                      1019.3F
$$

LMZ867-665-643>646-141900-
LAKE MICHIGAN

STATION/POSITION TIME  TEMP    WIND        PRES    WAVE
                       AIR SEA DIR/SP/G            HT/PER
                 (UTC) (F)     (DEG/KT/KT) (MB)    (FT/S)
CHAMBERS ISLAND  1700   13      40/  2/  3 1025.1F
SISTER BAY       1719   22        CALM   C1F1C2F2C3F3C4F4C5F5C6F6C7F7C8M1C9M2Ca!


USA.gov is the U.S. government's official web portal to all federal, state and local government web resources and services.